Regional Weather Roundup
Issued by NWS

Home | Current Version | Previous Version | Text Only | Print | Product List | Glossary Off
Versions: 1 2 3 4 5 6 7 8 9 10 11 12 13 14 15 16 17 18 19 20 21 22 23 24 25 26 27 28 29 30 31 32 33 34 35 36 37 38 39 40 41 42 43 44 45 46 47 48 49 50

000
ASUS44 KMEG 261500
RWRTN
TENNESSEE HOURLY STATE WEATHER ROUNDUP
NATIONAL WEATHER SERVICE MEMPHIS TN
1000 AM CDT THU APR 26 2018

TNZ002-004-019-021-049-052-054-088>092-261600-
WEST TENNESSEE

CITY           SKY/WX    TMP DP  RH WIND       PRES   REMARKS
MEMPHIS INTL   HVY RAIN  54  54 100 N13       29.85R FOG
NWS MEMPHIS      N/A     53 N/A N/A MISG        N/A
JACKSON        RAIN      56  55  97 N9        29.86R FOG
DYERSBURG      CLOUDY    57  55  94 N7        29.88S
$$

TNZ008-025-027-028-033-062-065-066-261600-
NORTH MIDDLE TENNESSEE

CITY           SKY/WX    TMP DP  RH WIND       PRES   REMARKS
NASHVILLE      LGT RAIN  59  55  87 SE6       29.89F FOG
CLARKSVILLE    CLOUDY    57  52  83 NE7       29.88F
SMYRNA         LGT RAIN  57  55  94 E6        29.91S
CROSSVILLE     LGT RAIN  51  49  92 S3        29.94S
$$

TNZ061-075-076-078-094-096-097-261600-
SOUTH MIDDLE TENNESSEE

CITY           SKY/WX    TMP DP  RH WIND       PRES   REMARKS
$$

TNZ017-018-042-046-047-261600-
NORTHEAST TENNESSEE

CITY           SKY/WX    TMP DP  RH WIND       PRES   REMARKS
TRI CITIES     PTSUNNY   62  46  55 NE5       29.92F
$$

TNZ012-013-036-069-073-074-261600-
CENTRAL EAST TENNESSEE

CITY           SKY/WX    TMP DP  RH WIND       PRES   REMARKS
KNOXVILLE      LGT RAIN  54  53  97 S6        29.93R
OAK RIDGE      LGT RAIN  54  54 100 CALM      29.94S
$$

TNZ083-085-099-261600-
SOUTHEAST TENNESSEE

CITY           SKY/WX    TMP DP  RH WIND       PRES   REMARKS
CHATTANOOGA    RAIN      55  53  93 CALM      29.93F FOG
$$

SKY/WX REPORTED AS FAIR MEANS FEW OR NO CLOUDS BELOW
12 THOUSAND FEET.





USA.gov is the U.S. government's official web portal to all federal, state and local government web resources and services.